Date String (YYYY-MM-DD hh:mm:ss) UTC,Instrument flags,Ambient pressure (hPa),Sample flow (lpm),Bypass flow (lpm),Sample temperature (°C),Ambient temperature (°C),ASC tube jacket temperature (°C),LED temperature (°C),Box temperature (°C),Sample RH (%),Span deviation,Mass concentration (μg/m³),Mass concentration (μg/m³),Mass concentration (μg/m³)
DateTimeUTC,F1_M11,P_M11,Q1_M11,Q2_M11,T1_M11,T2_M11,T3_M11,T4_M11,T5_M11,U1_M11,ZSPAN_M11,X2_M11,X0_M11,X1_M11
2022-09-18 23:00:00,,0824.9,4.99,0.00,29.7,27.7,00.0,38.3,31.5,23.6,0000.0,0006.19,0014.67,0005.19
2022-09-18 23:01:00,,0824.9,5.00,0.00,29.7,28.0,00.0,38.3,31.5,23.5,-000.1,0006.19,0015.18,0005.18
2022-09-18 23:02:00,,0824.9,5.00,0.00,29.8,28.3,00.0,38.4,31.7,23.4,-000.0,0006.20,0015.12,0005.18
2022-09-18 23:03:00,,0824.9,5.01,0.00,29.8,28.5,00.0,38.4,31.7,23.3,0000.0,0006.17,0013.84,0005.18
2022-09-18 23:04:00,,0824.9,4.99,0.00,29.8,28.6,00.0,38.4,31.7,23.5,0000.0,0006.12,0014.29,0005.18
2022-09-18 23:05:00,,0824.9,4.99,0.00,29.9,28.4,00.0,38.4,31.8,23.2,0000.0,0006.08,0014.26,0005.17
2022-09-18 23:06:00,,0824.9,5.01,0.00,29.9,27.1,00.0,38.4,31.6,23.2,0000.0,0006.06,0014.71,0005.18
2022-09-18 23:07:00,,0824.9,4.99,0.00,29.8,26.4,00.0,38.4,31.5,23.1,0000.0,0006.01,0014.33,0005.18
2022-09-18 23:08:00,,0824.9,5.00,0.00,29.8,26.6,00.0,38.4,31.5,23.4,0000.0,0006.01,0014.69,0005.19
2022-09-18 23:09:00,,0824.9,5.00,0.00,29.7,26.9,00.0,38.3,31.4,23.3,0000.0,0005.99,0014.98,0005.18
2022-09-18 23:10:00,,0824.9,5.00,0.00,29.7,27.2,00.0,38.3,31.4,23.3,0000.0,0005.94,0014.62,0005.17
2022-09-18 23:11:00,,0824.8,5.00,0.00,29.7,27.6,00.0,38.3,31.4,23.3,0000.0,0005.89,0014.87,0005.16
2022-09-18 23:12:00,,0824.9,5.00,0.00,29.7,27.9,00.0,38.3,31.5,23.2,0000.0,0005.87,0014.68,0005.16
2022-09-18 23:13:00,,0824.9,5.00,0.00,29.7,28.1,00.0,38.3,31.6,23.3,0000.0,0005.83,0015.10,0005.15
2022-09-18 23:14:00,,0824.9,4.99,0.00,29.8,28.3,00.0,38.4,31.7,23.6,0000.0,0005.83,0015.01,0005.14
2022-09-18 23:15:00,,0824.9,5.00,0.00,29.8,28.5,00.0,38.4,31.7,23.7,0000.0,0005.86,0014.86,0005.13
2022-09-18 23:16:00,,0824.9,5.01,0.00,29.9,28.7,00.0,38.4,31.8,23.4,0000.0,0005.84,0016.10,0005.12
2022-09-18 23:17:00,,0824.8,5.00,0.00,29.9,28.7,00.0,38.4,31.9,23.4,0000.0,0005.82,0017.79,0005.12
2022-09-18 23:18:00,,0824.8,5.00,0.00,29.9,27.6,00.0,38.5,31.7,23.2,0000.0,0005.83,0017.84,0005.11
2022-09-18 23:19:00,,0824.8,5.00,0.00,29.8,26.7,00.0,38.4,31.6,23.1,0000.0,0005.84,0017.22,0005.10
2022-09-18 23:20:00,,0824.7,5.00,0.00,29.8,26.7,00.0,38.4,31.6,23.1,0000.0,0005.85,0017.36,0005.10
2022-09-18 23:21:00,,0824.7,5.01,0.00,29.8,27.0,00.0,38.4,31.5,23.3,0000.0,0005.87,0018.26,0005.10
2022-09-18 23:22:00,,0824.7,5.00,0.00,29.7,27.3,00.0,38.4,31.4,23.0,0000.0,0005.90,0017.94,0005.09
2022-09-18 23:23:00,,0824.7,5.01,0.00,29.7,27.6,00.0,38.4,31.4,22.8,0000.0,0005.88,0017.29,0005.07
2022-09-18 23:24:00,,0824.9,5.01,0.00,29.7,27.9,00.0,38.4,31.5,22.8,0000.0,0005.84,0016.53,0005.06
2022-09-18 23:25:00,,0824.7,5.00,0.00,29.8,28.2,00.0,38.4,31.7,23.1,0000.0,0005.79,0016.42,0005.05
2022-09-18 23:26:00,,0824.7,4.99,0.00,29.8,28.4,00.0,38.4,31.7,23.0,0000.0,0005.77,0016.38,0005.04
2022-09-18 23:27:00,,0824.7,5.00,0.00,29.9,28.6,00.0,38.4,31.8,22.9,0000.0,0005.74,0014.93,0005.03
2022-09-18 23:28:00,,0824.7,5.00,0.00,29.9,28.7,00.0,38.4,31.8,22.7,0000.0,0005.71,0012.50,0005.02
2022-09-18 23:29:00,,0824.7,4.99,0.00,29.9,27.8,00.0,38.5,31.8,22.3,0000.0,0005.66,0012.61,0005.01
2022-09-18 23:30:00,,0824.7,5.01,0.00,29.9,26.7,00.0,38.4,31.7,22.4,0000.0,0005.64,0013.09,0005.01
2022-09-18 23:31:00,,0824.7,5.00,0.00,29.8,26.6,00.0,38.4,31.6,22.4,0000.0,0005.61,0012.64,0005.00
2022-09-18 23:32:00,,0824.7,5.00,0.00,29.8,26.9,00.0,38.4,31.5,22.5,0000.0,0005.58,0011.57,0004.99
2022-09-18 23:33:00,,0824.7,5.00,0.00,29.7,27.2,00.0,38.4,31.4,22.8,0000.0,0005.57,0011.49,0004.98
2022-09-18 23:34:00,,0824.7,5.01,0.00,29.7,27.5,00.0,38.3,31.4,22.4,0000.0,0005.54,0011.61,0004.98
2022-09-18 23:35:00,,0824.6,4.99,0.00,29.7,27.8,00.0,38.4,31.5,22.5,0000.0,0005.55,0011.96,0004.97
2022-09-18 23:36:00,,0824.7,5.00,0.00,29.7,28.1,00.0,38.4,31.5,22.8,0000.0,0005.57,0012.83,0004.97
2022-09-18 23:37:00,,0824.7,5.00,0.00,29.8,28.3,00.0,38.4,31.6,22.3,0000.0,0005.54,0012.51,0004.96
2022-09-18 23:38:00,,0824.6,4.99,0.00,29.8,28.5,00.0,38.4,31.7,22.2,0000.0,0005.55,0012.65,0004.96
2022-09-18 23:39:00,,0824.7,5.01,0.00,29.9,28.7,00.0,38.4,31.8,22.1,0000.0,0005.61,0013.17,0004.96
2022-09-18 23:40:00,,0824.7,4.99,0.00,29.9,28.6,00.0,38.4,31.8,22.0,0000.0,0005.61,0012.73,0004.95
2022-09-18 23:41:00,,0824.6,5.00,0.00,29.9,27.4,00.0,38.4,31.7,22.1,0000.0,0005.61,0012.37,0004.93
2022-09-18 23:42:00,,0824.6,5.00,0.00,29.8,26.5,00.0,38.4,31.6,21.9,0000.0,0005.61,0011.62,0004.92
2022-09-18 23:43:00,,0824.6,5.01,0.00,29.8,26.6,00.0,38.4,31.6,21.8,0000.0,0005.64,0011.70,0004.90
2022-09-18 23:44:00,,0824.6,5.01,0.00,29.7,26.9,00.0,38.4,31.4,22.1,0000.0,0005.66,0011.84,0004.89
2022-09-18 23:45:00,,0824.7,5.00,0.00,29.7,27.2,00.0,38.4,31.3,22.4,0000.0,0005.71,0012.84,0004.90
2022-09-18 23:46:00,,0824.7,4.99,0.00,29.7,27.5,00.0,38.4,31.4,22.1,0000.0,0005.71,0012.65,0004.91
2022-09-18 23:47:00,,0824.6,5.01,0.00,29.7,27.8,00.0,38.4,31.4,21.8,0000.0,0005.69,0012.21,0004.92
2022-09-18 23:48:00,,0824.6,4.99,0.00,29.7,28.1,00.0,38.4,31.5,21.9,0000.0,0005.70,0012.53,0004.92
2022-09-18 23:49:00,,0824.6,5.01,0.00,29.8,28.3,00.0,38.4,31.6,21.6,0000.0,0005.68,0012.28,0004.92
2022-09-18 23:50:00,,0824.6,5.00,0.00,29.8,28.5,00.0,38.4,31.7,21.7,0000.0,0005.67,0011.99,0004.93
2022-09-18 23:51:00,,0824.6,5.00,0.00,29.9,28.6,00.0,38.4,31.7,21.6,0000.0,0005.71,0012.25,0004.95
2022-09-18 23:52:00,,0824.7,5.00,0.00,29.9,27.6,00.0,38.4,31.7,21.8,0000.0,0005.72,0012.47,0004.96
2022-09-18 23:53:00,,0824.5,5.01,0.00,29.8,26.4,00.0,38.4,31.6,21.3,0000.0,0005.72,0012.83,0004.97
2022-09-18 23:54:00,,0824.7,5.00,0.00,29.8,26.4,00.0,38.4,31.6,21.3,0000.0,0005.71,0013.69,0004.98
2022-09-18 23:55:00,,0824.8,4.99,0.00,29.7,26.7,00.0,38.3,31.4,21.7,0000.0,0005.64,0013.58,0004.98
2022-09-18 23:56:00,,0824.8,5.00,0.00,29.7,27.0,00.0,38.3,31.3,21.7,0000.0,0005.60,0012.97,0004.98
2022-09-18 23:57:00,,0824.5,5.01,0.00,29.6,27.4,00.0,38.3,31.3,21.9,0000.0,0005.61,0013.45,0004.97
2022-09-18 23:58:00,,0824.6,4.99,0.00,29.7,27.7,00.0,38.3,31.4,21.5,0000.0,0005.66,0014.10,0004.95
2022-09-18 23:59:00,,0824.7,5.01,0.00,29.7,28.0,00.0,38.3,31.4,21.2,0000.0,0005.67,0013.92,0004.94
